This is the latest recevied weather packets stored in our database for station/object JR5VPD-10. If no packets are shown the sender has not sent any weather packets the latest 10 day(s).
| Time | Temp. | Humidity | Pressure | Rain* | Wind** | Luminosity | Snow |
|---|---|---|---|---|---|---|---|
| 1787873772 | 30° C | 81% | 1008.1 hPa | 0 mm | 0 m/s | - | - |
| 1787871972 | 30° C | 88% | 1008.1 hPa | 0 mm | 0 m/s | - | - |
| 1787870172 | 30° C | 91% | 1007.9 hPa | 0 mm | 0 m/s | - | - |
| 1787868372 | 30° C | 84% | 1007.6 hPa | 0 mm | 0 m/s | - | - |
| 1787866572 | 30° C | 85% | 1007.5 hPa | 0 mm | 0 m/s | - | - |
| 1787864772 | 30° C | 86% | 1007.1 hPa | 0 mm | 0 m/s | - | - |
| 1787862972 | 28.89° C | 90% | 1007.3 hPa | 0 mm | 0 m/s | - | - |
| 1787861172 | 30° C | 88% | 1006.8 hPa | 0 mm | 0 m/s | - | - |
| 1787859372 | 30° C | 84% | 1006.6 hPa | 0 mm | 0 m/s | - | - |
| 1787857572 | 28.89° C | 87% | 1006.7 hPa | 0 mm | 0 m/s | - | - |
| 1787855772 | 30° C | 90% | 1006.6 hPa | 0 mm | 0 m/s | - | - |
| 1787853972 | 30° C | 92% | 1006.2 hPa | 0 mm | 0 m/s | - | - |
| 1787852172 | 30° C | 92% | 1006.2 hPa | 0 mm | 0 m/s | - | - |
| 1787850372 | 28.89° C | 91% | 1006.4 hPa | 0 mm | 0 m/s | - | - |
| 1787848572 | 30° C | 87% | 1006.2 hPa | 0 mm | 0 m/s | - | - |
| 1787846772 | 30° C | 83% | 1006.6 hPa | 0 mm | 0 m/s | - | - |
| 1787844972 | 30° C | 84% | 1006.3 hPa | 0 mm | 0 m/s | - | - |
| 1787843172 | 30° C | 80% | 1005.9 hPa | 0 mm | 0 m/s | - | - |
| 1787841372 | 30° C | 74% | 1005.9 hPa | 0 mm | 0 m/s | - | - |
| 1787839572 | 30° C | 82% | 1006 hPa | 0 mm | 0 m/s | - | - |
| 1787837772 | 30.56° C | 85% | 1006.1 hPa | 0 mm | 0 m/s | - | - |
| 1787835972 | 30.56° C | 85% | 1005.8 hPa | 0 mm | 0 m/s | - | - |
| 1787834172 | 30° C | 91% | 1005.8 hPa | 0 mm | 0 m/s | - | - |
| 1787832372 | 30.56° C | 89% | 1006 hPa | 0 mm | 0 m/s | - | - |
| 1787830572 | 30.56° C | 89% | 1005.5 hPa | 0 mm | 0 m/s | - | - |
* Rain latest hour (hover to see other rain measurements)
** Current wind speed in m/s (hover to see current wind gust speed)